sat.trackr.live / text

‹ back to catalog

JILIN-1 GAOFEN 3H

NORAD 46460 · 2020-065G

PAYLOAD ACTIVE UNKNOWN

§ Identity

Operator
Country
PRC
Launch date
2020-09-15
Launch site
SEAL
Launch vehicle
Mass (kg)
RCS (m²)

External: N2YO · Heavens-Above · Gunter

§ Orbital elements

Epoch: 2026-05-25T04:19:47.398080Z

Period
92.06 min
Inclination
97.2251°
Eccentricity
0.0007985
Mean motion
15.64273089 rev/d
Perigee alt
369.9 km
Apogee alt
380.7 km
Semi-major
6,753.5 km
B*
7.0350e-4
RAAN
197.6458°
Arg perigee
85.3631°
Mean anomaly
274.8540°
Rev number
31,628

§ Raw data

JILIN-1 GAOFEN 3H1 46460U 20065G   26145.18040970  .00067441  00000+0  70350-3 0  99992 46460  97.2251 197.6458 0007985  85.3631 274.8540 15.64273089316288

JSON: /api/v1/satellites/46460 · /tle

For live sub-satellite position, see the globe view (requires WebGL).

§ Visibility from observer

Set your observer location to see the next 7 days of passes ≥ 10°. The values pass through the URL so the page stays shareable.

No JS? Fill the form by hand. The geolocation button needs JavaScript.

§ Radio — SatNOGS DB

ModeDescriptionDownlinkUplink
BPSK Jillin Mysterious Pip 1.616 GHz

1 transmitter · refreshed weekly from db.satnogs.org